{"data":{"norad_id":81995,"epoch":"2026-09-18T07:02:34.508544Z","epoch_age_seconds":204942,"freshness":"STALE","line1":"1 81995U          26261.29345496  .00003624  00000+0  71797-3 0  9999","line2":"2 81995  65.7429 110.7770 0497024 158.4930 203.7861 14.06604984643514","mean_motion":14.06604984,"eccentricity":0.0497024,"inclination_deg":65.7429,"raan_deg":110.777,"arg_perigee_deg":158.493,"mean_anomaly_deg":203.7861,"bstar":0.00071797,"rev_number":64351,"period_min":102.37415737751,"perigee_km":510.71264213337,"apogee_km":1231.3129266193,"semimajor_km":7249.1497843764,"source":"CELESTRAK","updated_at":"2026-09-20T09:00:32.429427Z"}}